Time,TemperatureF,DewpointF,PressureIn,WindDirection,WindDirectionDegrees,WindSpeedMPH,WindSpeedGustMPH,Humidity,HourlyPrecipIn,Conditions,Clouds,dailyrainin,SoftwareType,DateUTC
2013-07-14 08:00:00,73.8,70.4,30.23,North,0,0.0,0.0,89,0.00,,,0.00,WUHU216HW,2013-07-14 12:00:00,
2013-07-14 08:05:00,73.8,70.4,30.23,North,0,0.0,0.0,89,0.00,,,0.00,WUHU216HW,2013-07-14 12:05:00,
2013-07-14 08:10:00,73.8,70.4,30.23,North,0,0.0,0.0,89,0.00,,,0.00,WUHU216HW,2013-07-14 12:10:00,
2013-07-14 09:00:00,77.8,74.3,30.23,North,0,0.0,0.0,89,0.00,,,0.00,WUHU216HW,2013-07-14 13:00:00,
2013-07-14 09:05:00,77.8,74.3,30.23,North,0,0.0,0.0,89,0.00,,,0.00,WUHU216HW,2013-07-14 13:05:00,
2013-07-14 09:30:00,80.6,75.3,30.24,North,0,0.0,0.0,84,0.00,,,0.00,WUHU216HW,2013-07-14 13:30:00,
2013-07-14 09:35:00,80.6,75.3,30.24,North,0,0.0,0.0,84,0.00,,,0.00,WUHU216HW,2013-07-14 13:35:00,
2013-07-14 10:30:00,84.8,77.1,30.25,North,0,0.0,0.0,78,0.00,,,0.00,WUHU216HW,2013-07-14 14:30:00,
2013-07-14 10:35:00,84.8,77.1,30.25,North,0,0.0,0.0,78,0.00,,,0.00,WUHU216HW,2013-07-14 14:35:00,
2013-07-14 11:30:00,87.8,76.4,30.25,North,0,0.0,0.0,69,0.00,,,0.00,WUHU216HW,2013-07-14 15:30:00,
2013-07-14 11:35:00,87.8,76.4,30.25,North,0,0.0,0.0,69,0.00,,,0.00,WUHU216HW,2013-07-14 15:35:00,
2013-07-14 12:30:00,87.7,74.4,30.26,North,0,0.0,0.0,65,0.00,,,0.00,WUHU216HW,2013-07-14 16:30:00,
2013-07-14 12:35:00,87.7,74.4,30.26,North,0,0.0,0.0,65,0.00,,,0.00,WUHU216HW,2013-07-14 16:35:00,
2013-07-14 14:00:00,88.9,76.2,30.24,North,0,0.0,0.0,66,0.00,,,0.00,WUHU216HW,2013-07-14 18:00:00,
2013-07-14 14:05:00,88.9,75.6,30.24,North,0,0.0,0.0,65,0.00,,,0.00,WUHU216HW,2013-07-14 18:05:00,
2013-07-14 14:30:00,87.5,76.1,30.24,North,0,0.0,0.0,69,0.00,,,0.00,WUHU216HW,2013-07-14 18:30:00,
2013-07-14 14:35:00,87.5,76.1,30.24,North,0,0.0,0.0,69,0.00,,,0.00,WUHU216HW,2013-07-14 18:35:00,
2013-07-14 15:30:00,90.5,74.8,30.22,North,0,0.0,0.0,60,0.00,,,0.00,WUHU216HW,2013-07-14 19:30:00,
2013-07-14 15:35:00,90.5,74.8,30.22,North,0,0.0,0.0,60,0.00,,,0.00,WUHU216HW,2013-07-14 19:35:00,
2013-07-14 16:00:00,88.7,74.5,30.21,North,0,0.0,0.0,63,0.00,,,0.00,WUHU216HW,2013-07-14 20:00:00,
2013-07-14 16:05:00,88.7,74.5,30.21,North,0,0.0,0.0,63,0.00,,,0.00,WUHU216HW,2013-07-14 20:05:00,
2013-07-14 16:30:00,90.4,75.1,30.21,North,0,0.0,0.0,61,0.00,,,0.00,WUHU216HW,2013-07-14 20:30:00,
2013-07-14 16:35:00,90.4,75.1,30.21,North,0,0.0,0.0,61,0.00,,,0.00,WUHU216HW,2013-07-14 20:35:00,
2013-07-14 17:00:00,93.2,75.2,30.21,North,0,0.0,0.0,56,0.00,,,0.00,WUHU216HW,2013-07-14 21:00:00,
2013-07-14 17:05:00,93.2,75.2,30.21,North,0,0.0,0.0,56,0.00,,,0.00,WUHU216HW,2013-07-14 21:05:00,
2013-07-14 18:00:00,91.8,74.9,30.21,North,0,0.0,0.0,58,0.00,,,0.00,WUHU216HW,2013-07-14 22:00:00,
2013-07-14 18:05:00,91.8,74.9,30.21,North,0,0.0,0.0,58,0.00,,,0.00,WUHU216HW,2013-07-14 22:05:00,
2013-07-14 18:10:00,91.8,74.9,30.21,North,0,0.0,0.0,58,0.00,,,0.00,WUHU216HW,2013-07-14 22:10:00,
2013-07-14 19:00:00,89.1,73.5,30.21,North,0,0.0,0.0,60,0.00,,,0.00,WUHU216HW,2013-07-14 23:00:00,
2013-07-14 19:05:00,89.1,73.5,30.21,North,0,0.0,0.0,60,0.00,,,0.00,WUHU216HW,2013-07-14 23:05:00,
2013-07-14 19:10:00,89.1,73.5,30.21,North,0,0.0,0.0,60,0.00,,,0.00,WUHU216HW,2013-07-14 23:10:00,
2013-07-14 20:00:00,83.7,72.9,30.22,North,0,0.0,0.0,70,0.00,,,0.00,WUHU216HW,2013-07-15 00:00:00,
2013-07-14 20:05:00,83.7,72.9,30.22,North,0,0.0,0.0,70,0.00,,,0.00,WUHU216HW,2013-07-15 00:05:00,